Profiel Pagina van preekvandeweek
preekvandeweek
8209
OFFLINE
7 jaar geleden
7 jaar geleden
7 jaar geleden
0

Info

preekvandeweek
-
-
Via de mailinglist op onze site, kunt u wekelijks ook onze geselecteerde preek van de week ontvangen.
U kunt ook terecht op de archieven op onze website: www.preekvandeweek.be

Preken

DatumTitelTreffersBeoordeling
16-07-2009 23:00:00Geen kerk zonder priesters (2009)1305 / 0
11-07-2009 23:00:00De kracht van de kwetsbaarheid (2009)1247 / 0
04-07-2009 23:00:00Verwondering (2009)1270 / 0
27-06-2009 23:00:00Sta op! (2009)1347 / 0
27-06-2009 23:00:00 Aan het leven teruggegeven (2009)1178 / 0
27-06-2009 23:00:00Tot leven wekken (2009)1322 / 0
20-06-2009 23:00:00Het stillen van de storm (2009)1578 / 0
13-06-2009 23:00:00Gods koninkrijk (2009)1464 / 0
13-06-2009 23:00:00De kracht van het geduld (2009)1640 / 0
21-04-2009 21:27:00Terwijl we van hem spreken... (2009)1391 / 0
21-04-2009 21:27:00Van vertwijfeling naar hoop (2009)1321 / 0
17-02-2009 19:18:00Dragen of gedragen worden (2009)1482 / 0
18-01-2009 13:51:51De brieven van Paulus1367 / 0
13-01-2009 16:00:00Jezus als Lam Gods (2009)1524 / 0
09-01-2009 17:11:10De keten van bevrijding (2009)1210 / 0
22-11-2008 15:46:00Een partijdige rechter (2008)1368 / 0
12-11-2008 00:01:00Kostbare talenten (2008)1574 / 0
04-11-2008 20:58:00Tempelreiniging (2008)773 / 0
14-10-2008 14:44:33God en de belastingen (2008)1621 / 0
14-10-2008 14:43:26Dragers van Gods beeld (2008)1572 / 0
11-10-2008 19:00:00De feestelijkheid van het leven (2008)1329 / 0
04-10-2008 19:00:00Gods rentmeesters (2008)1405 / 0
04-10-2008 19:00:00De wingerd van de schepping (2008)1291 / 0
04-10-2008 19:00:00Een oproep tot bekering (2008)1407 / 0
27-09-2008 19:00:00Telkens nieuwe kansen (2008)1375 / 0
21-09-2008 14:33:46Twee keren bekering (2008)1568 / 0
14-09-2008 19:00:00Gods ongekende goedheid (2008)1325 / 0
05-09-2008 19:00:00Opkijken naar het kruis (2008)1092 / 0
31-08-2008 19:00:00Elkaars profeten (2008)1444 / 0
30-08-2008 19:00:00Ondanks alles (2008)1505 / 0
23-08-2008 19:00:00Een rots om op te bouwen (2008)1488 / 0
16-08-2008 19:00:00Kerk voor het geluk van de mensen (2008)1360 / 0
11-08-2008 13:26:59Jezus schaakmat gezet (2008)1609 / 0
09-08-2008 19:00:00Over het water lopen (2008)1705 / 0
02-08-2008 19:00:00Breken en delen (2008)1585 / 0
26-07-2008 19:00:00De beste keuze (2008)1698 / 0
19-07-2008 19:00:00Onkruid en tarwe (2008)1601 / 0
19-07-2008 19:00:00Wie, wat is goed? Wat, wie is kwaad? (2008)1558 / 0
19-07-2008 19:00:00Tussen twijfel en overgave (2008)1514 / 0
12-07-2008 19:00:00Een les van hoop en optimisme (2008)1605 / 0
05-07-2008 19:00:00Het juk van de prestatiemaatschappij (2008)1778 / 1
28-06-2008 19:00:00De dienst van het ambt en van het apostolaat (2008)686 / 0
16-06-2008 13:14:12Niet vreesachtig geloven (2008)1588 / 0
14-06-2008 19:00:00Gezonden om te geven (2008)1468 / 0
14-06-2008 19:00:00Op pad gestuurd (2008)1477 / 0
14-06-2008 19:00:00Niet naar de heidenen? (2008)1425 / 0
07-06-2008 19:00:00Wiens brood men eet... (2008)1429 / 0
03-06-2008 13:18:29Wiens brood men eet...1759 / 0
27-05-2008 07:33:00 Op rotsgrond bouwen (2008)1630 / 0
22-05-2008 08:01:46 Eerst Gods koninkrijk2236 / 0
13-05-2008 22:59:00God boven, naast en in ons (2008)1497 / 0
10-05-2008 19:00:00De vijftigste dag (2008)1326 / 0
01-05-2008 02:12:57God verheerlijken (2008)1701 / 0
27-04-2008 19:00:00Geloven in de Kracht die blijft (2008)1350 / 0
27-04-2008 19:00:00Onze definitieve thuis (2008)1443 / 0
26-04-2008 19:00:00Niet als wezen achtergelaten (2008)1589 / 0
26-04-2008 19:00:00Niet ongerust zijn (2008)1399 / 0
08-04-2008 18:44:00De deur voor de schapen (2008)1735 / 0
05-04-2008 19:00:00Mensen onderweg (2008)1731 / 0
29-03-2008 19:00:00Niet zien en toch geloven (2008)1723 / 0
29-03-2008 19:00:00Weten en geloven (2008)1665 / 0
29-03-2008 19:00:00Ongelovige Thomas? (2008)1914 / 0
22-03-2008 17:18:30Opstaan tot nieuw leven (2008)1757 / 0
21-03-2008 19:00:00Verrijzenis, feit of fictie? (2008)1700 / 0
18-03-2008 14:51:12Zijn testament (2008)1554 / 0
18-03-2008 14:50:00Gods roepstem (2008)1395 / 0
18-03-2008 14:44:51 Voorbij de horizon (2008)1474 / 0
18-03-2008 14:43:38Niet in het graf (2008)1644 / 0
04-03-2008 20:54:00De grafsteen wegnemen (2008)1625 / 0
26-02-2008 16:49:00Ziende blinden, blinde zienden (2008)1717 / 1
20-02-2008 10:42:01Bron van levend water (2008)2177 / 0
20-02-2008 10:26:34Een vrouwelijke apostel (2008)1923 / 0
16-02-2008 18:00:00Zijn ware gedaante (2008)1566 / 1
05-02-2008 21:32:00Het duivelse in ons (2008)1658 / 0
02-02-2008 18:00:00Een nieuw licht (2008)1837 / 0
28-01-2008 18:00:00Gelukwensen (2008)2332 / 0
24-01-2008 18:00:00Christenen in de minderheid (2008)1668 / 0
19-01-2008 18:00:00Zie het Lam Gods (2008)2074 / 1
12-01-2008 11:24:16Oprijzen uit het water (2008)1767 / 0
09-01-2008 18:00:00Het kwaad ontkrachten (2008)1805 / 0
02-01-2008 18:00:00De vierde koning (2008)1796 / 0
30-12-2007 18:00:00Het gezin ge1808 / 0
24-12-2007 18:00:00Woord ons gegeven (2007)1497 / 0
11-12-2007 22:44:00Anders dan verwacht (2007)2096 / 0
03-12-2007 17:06:43Jesaja's droom (2007)2139 / 0
01-12-2007 18:00:00Wakker schudden (2007)2212 / 0
23-11-2007 14:36:17Een gekruisigde koning ( 2007)1580 / 0
21-11-2007 10:23:00Beeld van Gods barmhartigheid (2007)1619 / 0
15-11-2007 15:00:21Het einde der tijden of een nieuw begin (2007)?1815 / 1
14-11-2007 18:00:00Standvastigheid (2007)1705 / 0
06-11-2007 21:05:00Een God van levenden - 20071754 / 0
30-10-2007 23:49:00Voor kleine mensen bereikbaar (2007)1762 / 1
21-10-2007 08:22:16De bekoring van farize1718 / 0
16-10-2007 23:47:00Geloven is een werkwoord (2007)1665 / 0
02-10-2007 01:00:0027e zondag door het jaar C - 20071573 / 1
02-10-2007 01:00:0027e zondag door het jaar C - 20071678 / 1
25-09-2007 00:00:00Omkering van rijkdom en armoede (2007)1588 / 0
20-09-2007 01:00:00Met geld vrienden maken (2007)1710 / 2
12-09-2007 07:28:35Een pregnant verhaal (2007)1770 / 0
04-09-2007 01:00:00De eisen van het evangelie (2007)1653 / 0
29-08-2007 19:14:10De eersten laatst, de laatsten eerst (2007)1707 / 0
05-08-2007 01:00:00Moederschap1442 / 0
05-08-2007 01:00:00Een moeder om van te houden1652 / 0
05-08-2007 01:00:00Nederige mensen verheven1354 / 0
05-08-2007 01:00:00Maria ten hemelopneming1362 / 0
05-08-2007 01:00:00Model van geloven1416 / 0
21-07-2007 12:27:10Waar je schat is (2007)1775 / 0
21-07-2007 12:25:3918e zondag door het jaar C - 20071529 / 0
21-07-2007 12:24:1017e zondag door het jaar C - 20071438 / 0
20-07-2007 01:00:00Vrouwen evenzeer als mannen (2007)1526 / 0
20-07-2007 01:00:00Martha en Maria (2007)1730 / 0
15-07-2007 01:00:00Welbehagen en onbehagen (2007)1479 / 0
10-07-2007 21:25:2215e zondag door het jaar C - 20071436 / 0
04-07-2007 19:40:4114e zondag door het jaar C - 20071620 / 0
16-04-2005 20:00:00De roeping van een nieuwe herder (2005)1486 / 0
16-04-2005 20:00:00Herderschap (2005)1640 / 0
09-04-2005 20:00:00Gaande de weg (2005)1583 / 0
09-04-2005 20:00:00Op eigen risico (2005)1531 / 0
02-04-2005 20:00:00Twijfelen is toegestaan (2005)1586 / 0
26-03-2005 20:00:00Paasgeloof (2005)1598 / 1
26-03-2005 20:00:00De weg naar leven (2005)1501 / 0
19-03-2005 18:00:00Blijde inkomst (2005)1675 / 0
12-03-2005 18:00:00Paasmensen (2005)1611 / 0
12-03-2005 18:00:00Het volle leven (2005)1858 / 0
05-03-2005 18:00:00Het licht leren zien (2005)1503 / 0
26-02-2005 18:00:00Grenzen overschrijden (2005)1496 / 0
19-02-2005 18:00:00Gehoor geven aan de Stem (2005)1451 / 0
19-02-2005 18:00:00Bergervaringen (2005)1701 / 1
12-02-2005 18:00:00In de woestijn bekoord (2005)1731 / 0
24-10-2004 01:00:00Onecht en echt gebed (2004)1685 / 2
17-10-2004 01:00:00Met geheven handen (2004)1606 / 0
15-10-2004 19:00:00Het beeld van God (2004)1274 / 0
15-10-2004 19:00:00Het beeld van de keizer en het beeld van God (2004)1210 / 0
10-10-2004 01:00:00Een van de tien (2004)1742 / 1
03-10-2004 01:00:00Bidden om meer geloof (2004)1621 / 1
03-10-2004 01:00:00Geloof en dienstbaarheid1764 / 0
26-09-2004 01:00:00Wacht niet tot het te laat is (2004)1493 / 0
26-09-2004 01:00:00Op medemensen betrokken (2004)1612 / 2
19-09-2004 01:00:00Geld goed gebruiken (2004)1530 / 0
19-09-2004 01:00:00Met geld vrienden maken (2004)1507 / 1
18-07-2004 01:00:00Marta en Maria (2004)1638 / 0
11-07-2004 01:00:0015e zondag door het jaar C - 20041340 / 0
04-07-2004 01:00:0014e zondag door het jaar C - 20041372 / 0
09-02-2002 19:00:00Zonder pretentie (2002)1782 / 0
30-11-2001 18:00:001e zondag in de advent A (2001)1892 / 0
23-11-2001 18:00:00Vol hoop verwachten2047 / 0
23-11-2001 18:00:00Wakker geschud1961 / 0
31-10-2001 18:00:0032e zondag door het jaar C (2001)1492 / 0
19-10-2001 19:00:00Geloof en politiek (2001)1362 / 0
23-09-2001 01:00:00De wezenlijke armoede (2001)1504 / 0
23-09-2001 01:00:00Rentmeesters zijn we allemaal (2001)1474 / 0
15-07-2001 01:00:0015e zondag door het jaar C - 20011281 / 0
08-07-2001 01:00:0014e zondag door het jaar C - 20011344 / 0
01-07-2001 01:00:0013e zondag door het jaar C - 20011490 / 0
30-11-1999 00:00:00De liefde van een zondige vrouw (2001)1577 / 0
30-11-1999 00:00:00Niet achteromkijken (2004)1442 / 0
14-08-1999 19:00:00Ons volkslied846 / 0
De steile weg1941 / 0
Heilig durven zijn899 / 0
De daad bij het woord1717 / 0

23e zondag door het jaar (A)

  • Eerste lezing: Ez. 33,7-9
  • Tweede lezing: Rom. 13,8-10
  • Evangelie: Mt. 18, 15-20
  • Preken: 26
  • Vieringen: 1
  • Downloads:

24e zondag door het jaar (A)

  • Eerste lezing: Sir. 27,30-28,7
  • Tweede lezing: Rom. 14,7-9
  • Evangelie: Mt. 18,21-35
  • Preken: 27
  • Vieringen: 0
  • Downloads: